This is the latest recevied weather packets stored in our database for station/object KD0RII. If no packets are shown the sender has not sent any weather packets the latest 10 day(s).
| Time | Temp. | Humidity | Pressure | Rain* | Wind** | Luminosity | Snow |
|---|---|---|---|---|---|---|---|
| 1777884372 | 17.78° C | 56% | 1006.3 hPa | 0 mm | - | 0 W/m² | - |
| 1777884068 | 17.78° C | 56% | 1006.3 hPa | 0 mm | - | 0 W/m² | - |
| 1777883766 | 17.78° C | 56% | 1006.3 hPa | 0 mm | - | 0 W/m² | - |
| 1777883463 | 17.78° C | 55% | 1006.5 hPa | 0 mm | - | 0 W/m² | - |
| 1777883158 | 17.78° C | 55% | 1006.2 hPa | 0 mm | - | 0 W/m² | - |
| 1777882855 | 17.78° C | 55% | 1006.4 hPa | 0 mm | - | 0 W/m² | - |
| 1777882552 | 17.78° C | 55% | 1006.6 hPa | 0 mm | - | 0 W/m² | - |
| 1777882248 | 18.33° C | 54% | 1006.6 hPa | 0 mm | - | 0 W/m² | - |
| 1777881945 | 18.33° C | 54% | 1006.6 hPa | 0 mm | - | 0 W/m² | - |
| 1777881642 | 18.33° C | 54% | 1006.9 hPa | 0 mm | - | 0 W/m² | - |
| 1777881338 | 18.33° C | 54% | 1006.9 hPa | 0 mm | - | 0 W/m² | - |
| 1777881036 | 18.33° C | 54% | 1007.1 hPa | 0 mm | - | 0 W/m² | - |
| 1777880734 | 18.33° C | 53% | 1007.1 hPa | 0 mm | - | 0 W/m² | - |
| 1777880431 | 18.89° C | 53% | 1007.1 hPa | 0 mm | - | 0 W/m² | - |
| 1777880130 | 18.89° C | 52% | 1007.2 hPa | 0 mm | - | 0 W/m² | - |
| 1777879828 | 18.89° C | 52% | 1007.4 hPa | 0 mm | - | 0 W/m² | - |
| 1777879525 | 18.89° C | 52% | 1007.4 hPa | 0 mm | - | 0 W/m² | - |
| 1777879221 | 19.44° C | 51% | 1007.5 hPa | 0 mm | - | 0 W/m² | - |
| 1777878919 | 19.44° C | 50% | 1007.3 hPa | 0 mm | - | 0 W/m² | - |
| 1777878615 | 19.44° C | 51% | 1007.4 hPa | 0 mm | - | 0 W/m² | - |
| 1777878313 | 19.44° C | 50% | 1007.6 hPa | 0 mm | - | 0 W/m² | - |
| 1777878009 | 19.44° C | 50% | 1007.8 hPa | 0 mm | - | 0 W/m² | - |
| 1777877705 | 20° C | 49% | 1007.6 hPa | 0 mm | - | 0 W/m² | - |
| 1777877402 | 20° C | 49% | 1007.7 hPa | 0 mm | - | 0 W/m² | - |
| 1777877100 | 19.44° C | 50% | 1007.8 hPa | 0 mm | - | 0 W/m² | - |
* Rain latest hour (hover to see other rain measurements)
** Current wind speed in m/s (hover to see current wind gust speed)